Location: Codford Saint Peter
(51.1597°N, 2.0531°W)
Time: 22:44:44
(UTC+00:00)

Cosmos 2297 Rocket - Pass Details

Date: 18 September 2020
Orbit: 838 x 845 km, 71.0° (Epoch: 30 October)

Event Time Altitude Azimuth Distance (km) Brightness Sun altitude
Rises 19:01:38 0° 250° (WSW) 3,391 6.4 -8.1°
Reaches altitude 10° 19:04:28 10° 263° (W) 2,461 5.9 -8.6°
Maximum altitude 19:09:10 27° 319° (NW) 1,591 4.4 -9.3°
Drops below altitude 10° 19:13:55 10° 16° (NNE) 2,475 4.6 -10.0°
Sets 19:16:47 0° 29° (NNE) 3,414 5.2 -10.4°
